Location: Oxnard Community Center
(34.1947°N, 119.1812°W)
Time: 07:02:27
(UTC+00:00)

Daily predictions for brighter satellites

Satellite Brightness Start Highest point End
(mag) Time Altitude Azimuth Time Altitude Azimuth Time Altitude Azimuth
H-2A R/B 3.9 12:01:16 10° N 12:04:53 40° WNW 12:08:09 12° SW
NOSS 2-3 (C) 4.5 12:04:21 10° S 12:07:42 34° ESE 12:10:54 10° NE
Cosmos 1844 Rocket 4.4 12:06:03 10° WNW 12:07:53 12° W 12:09:00 11° WSW
ADEOS Rocket 3.7 12:01:02 10° NNE 12:08:51 87° ESE 12:16:31 10° SSW
SL-08 RB Rocket 4.3 12:04:42 10° NNE 12:09:11 58° E 12:13:36 10° S
Lacrosse 4 Rocket 1.3 12:06:52 11° SSW 12:10:39 68° WNW 12:14:45 10° NNE
NOSS 2-3 (D) 4.2 12:09:05 10° S 12:12:46 43° ESE 12:16:16 10° NE
Cosmos 1766 Rocket 4.1 12:09:30 10° SSW 12:13:31 39° W 12:17:33 10° N
Cosmos 1331 Rocket 4.0 12:18:34 10° SSW 12:23:39 64° WNW 12:28:45 10° N
Cosmos 1437 Rocket 3.1 12:20:21 10° NNW 12:23:46 39° W 12:27:07 10° SSW
ARGOS 3.2 12:18:49 10° N 12:24:12 66° WNW 12:29:32 10° SSW
OAO 3 Rocket 3.2 12:19:43 10° W 12:24:24 63° SSW 12:28:59 10° ESE
Cosmos 1943 Rocket 3.8 12:19:06 10° N 12:24:25 41° ENE 12:29:42 10° SE
Iridium 4 Rocket 4.3 12:20:39 10° SSW 12:25:58 37° W 12:31:06 10° NNW
UNK 4.0 12:24:51 10° S 12:29:10 45° W 12:33:32 10° NNW
Okean 3 Rocket 3.6 12:25:15 10° SSW 12:29:42 67° W 12:34:12 10° N
Cosmos 1515 Rocket 3.7 12:26:27 10° N 12:30:45 76° E 12:35:02 10° S
H-2A R/B 3.3 12:27:20 10° NNW 12:30:57 21° WNW 12:34:34 10° WSW
Cosmos 1452 Rocket 3.6 12:26:40 10° SSW 12:31:50 64° WNW 12:37:03 10° N
Timation 2 Rocket 4.2 12:26:13 10° NNW 12:32:49 82° WSW 12:39:37 10° SSE
